Погода Пономарёво

Погода Пономарёво : погода сейчас, прогноз погоды и архив. Всё, что Вы хотите узнать о погоде Пономарёво!

Поиск расширенной информации на нашем сайте:

Другие новости

Новости СМИ2

Главная страница сайта

Новости сайта

03.07.2017

Напоминаем, что на нашем специализированном сайте Метеоцентр.Азия вы можете получить высокодетализированные автоматические прогнозы погоды по пунктам России, СНГ и мира в авиационном формате (включающие направление и скорость ветра, видимость, явления погоды, количество и форму облачности, нижнюю и верхнюю границу облачности).


Погода Пономарёво - сегодня

Время (UTC), дата Ветер
(°,м/с) 
Видим.   Явления Облачность Т
(°С)
Тd
(°С)
f(%) Тe
(°С)
Pmin
(гПа)
dP
(гПа)
Po
(мм)
O2
(г/м3)
Тmin Tmax R s Состояние
почвы
15 20.11.17 тихо ()   н/о  слаб. снег  10/10 1000 м 
[Sc]
-5.9 -7 92 -6  1033.3  0.7  732  302           
18 20.11.17 тихо ()   н/о  слаб. снег  10/10 1000 м 
[Sc]
-5.1 -5.4 98 -5  1033.5  0.4  733  301           
21 20.11.17 тихо ()   н/о  слаб. снег  10/9 1000 м 
[Sc]
-5.5 -5.9 97 -6  1033.9  0.3  733  302           
00 21.11.17 тихо ()   н/о  слаб. снег  10/0 средняя 
[As op]
-5.5 -5.9 97 -6  1034.2  0.3  733  302  -5.9    20  равномерный
мокрый или
старый снег
100% 
03 21.11.17 тихо ()   4000 м  слаб. снег  10/0 средняя 
[As op]
-4.5 -4.8 98 -5  1034.4  0.4  733  301           
06 21.11.17 тихо ()   10 км  осадки на расстоянии{снег}  10/8 600 м кучево-дожд., средняя 
[Cb cap|Ac As]
-2.9 -4.6 88 -3  1034.8  0.7  734  299           
09 21.11.17 270 (З) 10 км  осадки на расстоянии  10/8 600 м кучево-дожд., средняя 
[Cb cap|Ac trans]
-3.1 -6.6 77 -3  1034.3  -0.5  734  300           
15 21.11.17 230 (ЮЗ) н/о    10/10 600 м кучево-дожд. 
[Cb cap]
-3.9 -6.5 82 -3  1034.9  -0.3  734  301           
18 21.11.17 260 (З) н/о    10/10 600 м кучево-дожд. 
[Cb cap]
-3.9 -6.5 82 -3  1035.1  0.2  734  301           
21 21.11.17 тихо ()   н/о    10/10 600 м кучево-дожд. 
[Cb cap]
-3.9 -7.2 78 -4  1034.6  -0.5  734  301           
00 22.11.17 тихо ()   н/о  слаб. ливневой снег  10/10 600 м кучево-дожд. 
[Cb cap]
-4.7 -6 91 -5  1032.8  -1.7  732  301  -4.7    0.0  20  равномерный
мокрый или
старый снег
100% 
03 22.11.17 тихо ()   1000 м  ливневой снег  10/10 600 м кучево-дожд. 
[Cb cap]
-4.5 -5.1 96 -5  1030.2  -2.5  730  300           
06 22.11.17 220 (ЮЗ) 4000 м  слаб. ливневой снег  10/10 600 м кучево-дожд. 
[Cb cap]
-3.2 -4.6 90 -4  1028.7  -1.1  730  298           
09 22.11.17 тихо ()   10 км  осадки на расстоянии{ливн. осадки}  10/10 600 м кучево-дожд. 
[Cb cap]
-2.5 -4.7 85 -3  1030  1.4  731  298           
12 22.11.17 290 (З) н/о  слаб. ливневой снег  10/10 600 м кучево-дожд. 
[Cb cap]
-2.7 -4.7 86 -2  1032.7  2.6  732  298    -2.5     
15 22.11.17 тихо ()   н/о  слаб. ливневой снег  10/10 600 м кучево-дожд. 
[Cb cap]
-3.5 -4 96 -4  1034  733  300           
18 22.11.17 тихо ()   н/о  {ливн. осадки}  10/10 600 м кучево-дожд. 
[Cb cap]
-4.5 -5.1 96 -5  1034  -0.3  733  301           
21 22.11.17 тихо ()   н/о    10/10 600 м кучево-дожд. 
[Cb cap]
-4.9 -5.2 98 -5  1033.8  -0.4  733  301           
00 23.11.17 тихо ()   н/о  слаб. снег  10/0 средняя 
[As op]
-4.6 -4.9 98 -5  1033.2  -0.3  733  301  -4.9    0.6  21  равномерный
мокрый или
старый снег
100% 
03 23.11.17 тихо ()   1000 м  сильн. снег  10/0 средняя 
[As op]
-4.1 -4.6 96 -4  1032.6  -0.6  732  300           
06 23.11.17 тихо ()   4000 м  слаб. снег  10/0 средняя 
[As op]
-2.4 -3.3 94 -2  1031.3  -0.8  731  298           
09 23.11.17 тихо ()   2000 м  снег  10/0 средняя 
[As op]
-2.8 -3.2 97 -3  1030.8  -0.4  731  298           
12 23.11.17 тихо ()   н/о  {снег}  10/0 средняя 
[Ac As]
-3.7 -3.9 99 -4  1030  -1  730  299    -2.4     
15 23.11.17 тихо ()   н/о    10/0 средняя 
[Ac As]
-4.9 -5.2 98 -5  1029.1  -1.3  729  300           
18 23.11.17 тихо ()   н/о    10/0 средняя 
[Ac As]
-4.5 -4.8 98 -5  1028.7  -0.1  729  299           
Время (UTC), дата Ветер
(°,м/с) 
Видим.   Явления Облачность Т
(°С)
Тd
(°С)
f(%) Тe
(°С)
Pmin
(гПа)
dP
(гПа)
Po
(мм)
O2
(г/м3)
Тmin Tmax R s Состояние
почвы

Для получения пояснительной информации подведите курсор к названию столбца.

ПОГОДА Пономарёво - архив

Всё, что Вы хотите узнать о погоде Пономарёво - удобно и подробно!

Выберите нужную дату (начиная с 1 января 2015* года) и нажмите кнопку "Найти".
Будут отображены архивные сводки погоды по пункту Пономарёво, начиная с указанной даты.


Отображать данные в формате CSV (для использования в таблицах Excel)


Внимание! Наш архив погоды предназначен исключительно для личного некоммерческого использования в познавательных целях. Если Вам необходимы официальные справки о состоянии погоды (для производственных, юридических, коммерческих и т.п. целей), обращайтесь в органы Росгидромета.

*Примечание: данная дата относится к архиву по метеостанциям СССР (Россия, СНГ, Балтия).
Архив по метеостанциям Зарубежной Европы и Азии (кроме Китая) хранится 10 дней, по другим регионам земного шара (Китай, Африка, Америка, Австралия, Океания) - 1 день.

Пономарёво - район местоположения метеостанции


Название, широта, долгота, высота метеостанции:
Пономарёво 53.7°ш. 94.2°д. 445 м над ур. моря [Российская Федерация]

Дополнительная информация

В oтличие oт бoльшинства пoгoдных сайтoв мы публикуем пoдрoбную метеoинфoрмацию в детальнoм прoфессиoнальнoм фoрмате.

Характеристики температуры и влажнoсти вoздуха измеряются на высoте 2 м в тени вдали oт зданий и деревьев.
Скoрoсть ветра измеряется на высoте 10 м (на урoвне рoста челoвека скoрoсть ветра ниже в 1.5-2 раза). Если метеoстанция нахoдится в гoрoде или в лесу, тo скoрoсть ветра занижена на 2-4 м/с пo сравнению с oткрытым местoм. Скoрoсть ветра над акватoриями крупных рек и oзёр, а также на вершинах хoлмoв на 2-5 м/с выше, чем в oбычных услoвиях.
Атмoсфернoе давление в разных тoчках местнoсти мoжет значительнo oтличаться oт давления на метеoстанции, в зависимoсти oт услoвий рельефа (при пoдъёме на 10 м давление пoнижается примернo на 1 мм рт.ст.).